User: anonymous   Login
Location: Vancouver
(49.2500°N, 123.1330°W)
Time: 03:19:46
(UTC-07:00)
Language:

SO-67 - Orbit

View from above orbital plane
View from above orbital plane
View from above satellite
View from above satellite

Ground track
Ground track

The orbit data is extracted from the following two-line orbital elements,

1 35870U 09049F   14296.84067322  .00017225  00000-0  50613-3 0  6317
2 35870 097.1533 314.1600 0002595 054.9613 043.7214 15.35176812283774
Epoch (UTC): 23 October 2014 20:10:34
Eccentricity: 0.0002595
inclination: 97.1533°
perigee height: 458 km
apogee height: 462 km
right ascension of ascending node: 314.1600°
argument of perigee: 54.9613°
revolutions per day: 15.35176812
mean anomaly at epoch: 43.7214°
orbit number at epoch: 28377

The dashed part of the orbit path shows where the satellite is in the earth's shadow,  

DLR